STARLINK-1541 (46052 NORAD) Tracking and Keplerian Element Data

This shows tracking and keplerian element data for the satellite.

Feedback or suggestion? Click here.




ElementValue
Catalog46052
NameSTARLINK-1541
Epoch Orbit1841
Epoch Day332.71031886
Epoch Year2020
RAAN131.6525
Inclination53.0015
Eccentricity0.0002268
Argument of Perigee94.8847
Mean Anonmoly265.24
Mean Motion15.05590183
Decay Rate3.6E-07
L11 46052U 20055AB 20332.71031886 .00000036 00000-0 21665-4 0 9996
L22 46052 53.0015 131.6525 0002268 94.8847 265.2400 15.05590183 18414

Live tracking and technical data element details for STARLINK-1541 (NORAD 46052). STARLINK-1541 can be tracked NOW for your location showing map with azimuth and elevation plus other details from your city location.

Track the satellite on the map from your city or location and see movement details for azimuth, elevation, latitude, longitude, range, height, and movement on the map or in text.







IsCatalogInMostPopularTable: catalog: 46052, numindb: 20
Update: records affected: 1



GetName: 46052 STARLINK-1541

Hit Count: updated at: Sun, 29 Nov 2020 09:51:44 GMT